Regional Weather Roundup
Issued by NWS

Home | Current Version | Previous Version | Graphics & Text | Print | Product List | Glossary On
Versions: 1 2 3 4 5 6 7 8 9 10 11 12 13 14 15 16 17 18 19 20 21 22 23 24 25 26 27 28 29 30 31 32 33 34 35 36 37 38 39 40 41 42 43 44 45 46 47 48 49 50
000
ASUS43 KFSD 181210
RWRSD

WEATHER ROUNDUP FOR SOUTH DAKOTA
NATIONAL WEATHER SERVICE SIOUX FALLS SD
700 AM CDT FRI APR 18 2014

NOTE: "FAIR" INDICATES FEW OR NO CLOUDS BELOW 12,000 FEET WITH NO
SIGNIFICANT WEATHER AND/OR OBSTRUCTIONS TO VISIBILITY.


SDZ001>005-009-010-012>017-181300-
NORTHWEST AND NORTH CENTRAL SOUTH DAKOTA

CITY           SKY/WX    TMP DP  RH WIND       PRES   REMARKS
BUFFALO          N/A     29  25  85 E6        29.78F WCI  23
FAITH            N/A     33  27  78 SE17      29.86F WCI  22
MOBRIDGE       PTCLDY    34  24  67 SE18      29.97F WCI  23
$$

SDZ012>016-024>037-041>051-057-063-072>074-181300-
SOUTHWEST AND SOUTH CENTRAL SOUTH DAKOTA

CITY           SKY/WX    TMP DP  RH WIND       PRES   REMARKS
RAPID CTY ARPT CLEAR     34  31  88 SE5       29.82F WCI  30
PIERRE         CLEAR     35  26  69 E14       29.97S WCI  26
CUSTER         CLEAR     37  30  75 W7        29.87R
ELLSWORTH AFB  CLEAR     39  35  85 S7        29.81F
PHILIP         PTCLDY    34  30  85 E10       29.88F WCI  26
PINE RIDGE     CLEAR     42  36  79 S16       29.86F
SPEARFISH      FAIR      37  30  75 SW7       29.81S
WINNER         FAIR      45  34  65 S26G35    29.94F
$$

SDZ004>011-016>023-039-040-181300-
NORTHEAST SOUTH DAKOTA

CITY           SKY/WX    TMP DP  RH WIND       PRES   REMARKS
ABERDEEN       MOCLDY    35  19  52 E14       30.14F WCI  26
WATERTOWN      CLOUDY    34  26  72 SE13G21   30.19R WCI  25
SISSETON         N/A     32  25  75 SE8       30.25R WCI  25
$$

SDZ017-020-022-023-036>040-048>070-181300-
SOUTHEAST SOUTH DAKOTA

CITY           SKY/WX    TMP DP  RH WIND       PRES   REMARKS
SIOUX FALLS    CLOUDY    34  29  82 SE14      30.22F WCI  25
HURON          CLOUDY    37  28  70 SE17G24   30.11F
CHAMBERLAIN      N/A     36  26  67 SE16      30.03S
MITCHELL       CLOUDY    37  29  72 SE21      30.14F
YANKTON        CLOUDY    34  28  80 E10       30.20F WCI  26
$$

ABBREVIATIONS USED IN REMARKS
   TC - TEMPERATURE IN CELSIUS
  WCI - WIND CHILL INDEX
   HX - HEAT INDEX
  VSB - VISIBILITY




USA.gov is the U.S. government's official web portal to all federal, state and local government web resources and services.